If you wish to contribute or participate in the discussions about articles you are invited to join SKYbrary as a registered user

 Actions

Abbotsford International Airport

From SKYbrary Wiki

CYXX /
Revision as of 20:10, 28 March 2013 by Editor2 (talk | contribs)
Airport
ICAO: CYXX
Summary
Name Abbotsford International Airport
Region North America
Territory Canada CA.gif
Location Abbotsford, British Columbia
Serving
Coordinates 49° 1' 31.00" N, 122° 21' 48.00" W
Runways
Designator Length Width Surface ROPS
1/19 1624 m5,328.084 ft
61 m200.131 ft
ASP yes/yes
01L/19R 457 m1,499.344 ft
30 m98.425 ft
GRS /
7/25 2926 m9,599.738 ft
61 m200.131 ft
PEM yes/yes


METAR
Observation CYXX 260500Z 35003KT 15SM FEW130 BKN210 01/M04 A3055 RMK AC1CS6 SLP349
Station Abbotsford, B. C.
Date/Time 26 October 2020 05:00:00
Wind direction 350°
Wind speed 03 kts
Lowest cloud amount few clouds
Temperature 1°C
Dew point
Humidity 69%
QNH hPa
Weather condition n/a

BS
Tag(s) Bird Strike
WX
Tag(s) Fog

Abbotsford International Airport

ICAO: CYXX IATA: YXX

Description

Abbotsford International Airport is located near Abbotsford, British Columbia, Canada.

Climatology

Temperate Marine climate/Oceanic climate (Köppen climate classification Cfb). Moderately cool summer and comparatively warm winter.

Maps

Terrain

Loading map...

Airport Layout

Loading map...


Accidents & Serious Incidents at or in vicinity of CYXX

None on SKYbrary